Location: Marstown
(39.5056°N, 77.0820°W)
Time: 04:02:55
(UTC-04:00)

Envisat - Visible Passes

Search period start: 08 May 2026 00:00
Search period end: 18 May 2026 00:00
Orbit: 761 x 762 km, 98.4° (Epoch: 7 May)

Date Brightness Start Highest point End Pass type
(mag) Time Alt. Az. Time Alt. Az. Time Alt. Az.
8 May 4.8 02:46:27 10° NE 02:50:21 22° E 02:51:39 20° ESE visible
8 May 3.6 04:24:40 10° N 04:29:23 41° WNW 04:31:47 25° WSW visible
9 May 2.9 03:46:36 10° NNE 03:51:42 87° ESE 03:53:35 40° S visible
9 May 5.0 05:28:16 10° NW 05:29:52 11° WNW 05:31:26 10° WNW visible
10 May 4.1 03:09:08 10° NNE 03:13:48 37° E 03:15:22 30° SE visible
10 May 4.2 04:48:25 10° NNW 04:52:31 25° WNW 04:55:30 15° WSW visible
11 May 5.2 02:32:39 10° NE 02:35:42 16° E 02:37:11 14° ESE visible
11 May 3.2 04:10:00 10° N 04:14:57 56° WNW 04:17:18 30° SW visible
12 May 3.3 03:32:09 10° NNE 03:37:11 63° ESE 03:39:06 36° SSE visible
12 May 4.8 05:12:37 10° NNW 05:15:33 16° WNW 05:18:28 10° W visible
13 May 4.6 02:54:56 10° NE 02:59:12 27° E 03:00:54 22° SE visible
13 May 3.8 04:33:36 10° N 04:38:07 34° WNW 04:41:01 19° WSW visible
14 May 5.5 02:19:37 10° ENE 02:21:01 11° E 02:22:25 10° ESE visible
14 May 2.9 03:55:24 10° N 04:00:29 78° WNW 04:02:48 33° SSW visible
15 May 3.8 03:17:46 10° NNE 03:22:38 45° E 03:24:36 30° SSE visible
15 May 4.5 04:57:29 10° NNW 05:01:12 21° WNW 05:04:44 11° WSW visible
16 May 5.0 02:40:57 10° NE 02:44:34 19° E 02:46:23 16° ESE visible
16 May 3.4 04:18:52 10° N 04:23:42 46° WNW 04:26:30 23° SW visible
17 May 3.0 03:40:53 10° NNE 03:45:58 77° ESE 03:48:18 33° S visible
17 May 5.0 05:22:00 10° NW 05:24:12 13° WNW 05:26:26 10° W visible
